Weather History for Hazlehurst, GA

Change the Weather History Date:

Sunday, December 8, 2013

  Actual Average Record
Temperature  
Mean Temperature 56 °F -  
Max Temperature 75 °F 72 °F 75 °F (2012)
Min Temperature 51 °F 47 °F 48 °F (2012)
Degree Days  
Heating Degree Days 9    
Growing Degree Days 6 (Base 50)    
Moisture  
Dew Point 55 °F    
Average Humidity 99    
Maximum Humidity 100    
Minimum Humidity 93    
Precipitation  
Precipitation 0.00 in - - ()
Sea Level Pressure  
Sea Level Pressure 30.24 in    
Wind  
Wind Speed 5 mph (ENE)    
Max Wind Speed 8 mph    
Max Gust Speed 16 mph    
Visibility 5 miles    
Events Rain    
Averages and records for this station are not official NWS values.
T = Trace of Precipitation, MM = Missing Value Source: NWS Daily Summary

Daily Weather History Graph

Daily Weather History Graph

Search for Another Location

Airport:

Trip Planner

Search our weather history database for the weather conditions in past years. The results will help you decide how hot, cold, wet, or windy it might be!

Date:

Astronomy

Dec. 08, 2013 Rise Set
Actual Time 7:18 AM EST 5:26 PM EST
Civil Twilight 6:51 AM EST 5:53 PM EST
Nautical Twilight 6:21 AM EST 6:23 PM EST
Astronomical Twilight 5:51 AM EST 6:53 PM EST
Moon 11:54 AM EST (12/8) 11:56 PM EST (12/8)
Length of Visible Light 11h 01m
Length of Day
10h 07m
Waxing Crescent, 40% of the Moon is Illuminated
Dec 8
Waxing Crescent
Dec 9
First Quarter
Dec 17
Full
Dec 25
Last Quarter
Jan 1
New

Hourly Weather History & Observations

Time (EST) Temp. Dew Point Humidity Pressure Visibility Wind Dir Wind Speed Gust Speed Precip Events Conditions
12:15 AM 61.3 °F 59.4 °F 93% 30.25 in 10.0 mi NNE 4.6 mph - N/A   Light Drizzle
12:35 AM 61.0 °F 59.9 °F 96% 30.25 in 10.0 mi NE 8.1 mph - N/A Rain Light Rain
12:55 AM 60.1 °F 59.7 °F 99% 30.24 in 10.0 mi NE 6.9 mph - N/A   Light Drizzle
1:15 AM 59.5 °F 59.4 °F 99% 30.23 in 7.0 mi NE 8.1 mph - N/A   Overcast
1:35 AM 59.0 °F 58.8 °F 99% 30.23 in 10.0 mi ENE 6.9 mph - N/A   Overcast
1:55 AM 58.6 °F 58.3 °F 99% 30.22 in 10.0 mi ENE 6.9 mph - N/A   Overcast
2:15 AM 58.3 °F 57.9 °F 99% 30.23 in 10.0 mi ENE 6.9 mph - N/A   Overcast
2:35 AM 57.7 °F 57.4 °F 99% 30.24 in 10.0 mi ENE 4.6 mph - N/A   Overcast
2:55 AM 57.2 °F 57.2 °F 100% 30.24 in 10.0 mi ENE 8.1 mph - N/A   Overcast
3:15 AM 57.0 °F 56.8 °F 99% 30.24 in 7.0 mi ENE 5.8 mph - N/A   Overcast
3:35 AM 56.7 °F 56.7 °F 100% 30.24 in 10.0 mi ENE 4.6 mph - N/A   Overcast
3:55 AM 56.5 °F 56.5 °F 100% 30.24 in 10.0 mi ENE 8.1 mph 16.1 mph N/A   Overcast
4:15 AM 56.5 °F 56.5 °F 100% 30.24 in 10.0 mi ENE 4.6 mph - N/A   Overcast
4:35 AM 56.3 °F 56.1 °F 99% 30.24 in 10.0 mi ENE 5.8 mph - N/A   Overcast
4:55 AM 56.1 °F 55.8 °F 99% 30.24 in 7.0 mi NE 5.8 mph - N/A   Overcast
5:15 AM 55.4 °F 55.4 °F 100% 30.24 in 10.0 mi ENE 4.6 mph - N/A   Overcast
5:35 AM 55.0 °F 55.4 °F 100% 30.24 in 10.0 mi ENE 6.9 mph - N/A   Overcast
5:55 AM 54.9 °F 54.9 °F 100% 30.26 in 10.0 mi ENE 6.9 mph - N/A   Overcast
6:15 AM 54.9 °F 54.7 °F 99% 30.26 in 10.0 mi ENE 6.9 mph - N/A   Overcast
6:35 AM 54.9 °F 54.7 °F 99% 30.26 in 10.0 mi ENE 4.6 mph - N/A   Overcast
6:55 AM 54.5 °F 54.5 °F 100% 30.27 in 4.0 mi Calm Calm - N/A   Overcast
7:15 AM 54.0 °F 54.1 °F 100% 30.27 in 4.0 mi ENE 5.8 mph - N/A   Overcast
7:35 AM 53.4 °F 53.6 °F 100% 30.27 in 3.0 mi ENE 4.6 mph - N/A   Overcast
7:55 AM 53.1 °F 53.2 °F 100% 30.28 in 4.0 mi ENE 5.8 mph - N/A   Overcast
8:15 AM 52.9 °F 53.1 °F 100% 30.28 in 4.0 mi East 4.6 mph - N/A   Overcast
8:35 AM 52.9 °F 53.1 °F 100% 30.29 in 2.0 mi ENE 4.6 mph - N/A   Overcast
8:55 AM 52.9 °F 53.1 °F 100% 30.29 in 1.5 mi ENE 4.6 mph - N/A   Overcast
9:15 AM 52.9 °F 53.1 °F 100% 30.29 in 1.8 mi ENE 4.6 mph - N/A   Overcast
9:35 AM 52.9 °F 53.1 °F 100% 30.30 in 1.8 mi Calm Calm - N/A   Overcast
9:55 AM 53.1 °F 53.4 °F 100% 30.30 in 3.0 mi ENE 3.5 mph - N/A   Overcast
10:15 AM 53.1 °F 53.2 °F 100% 30.29 in 1.5 mi NE 5.8 mph - N/A   Overcast
10:35 AM 53.4 °F 53.4 °F 100% 30.30 in 3.0 mi NE 3.5 mph - N/A   Overcast
10:55 AM 53.2 °F 53.2 °F 100% 30.29 in 1.0 mi ENE 4.6 mph - N/A   Overcast
11:15 AM 53.1 °F 53.4 °F 100% 30.28 in 1.0 mi East 6.9 mph - N/A   Overcast
11:35 AM 53.4 °F 53.8 °F 100% 30.27 in 1.5 mi East 3.5 mph - N/A   Overcast
11:55 AM 54.0 °F 54.0 °F 100% 30.26 in 2.5 mi ENE 3.5 mph - N/A   Overcast
12:15 PM 54.3 °F 54.3 °F 100% 30.24 in 4.0 mi East 3.5 mph - N/A   Overcast
12:35 PM 55.2 °F 54.7 °F 98% 30.23 in 7.0 mi East 3.5 mph - N/A   Overcast
12:55 PM 55.4 °F 54.9 °F 98% 30.22 in 7.0 mi East 5.8 mph - N/A   Overcast
1:15 PM 55.8 °F 55.0 °F 97% 30.21 in 5.0 mi ENE 4.6 mph - N/A   Overcast
1:35 PM 56.1 °F 55.4 °F 97% 30.20 in 7.0 mi ENE 3.5 mph - N/A   Overcast
1:55 PM 56.3 °F 55.6 °F 97% 30.20 in 7.0 mi ENE 4.6 mph - N/A   Overcast
2:15 PM 56.3 °F 55.6 °F 97% 30.19 in 5.0 mi ENE 4.6 mph - N/A   Overcast
2:35 PM 56.3 °F 55.8 °F 98% 30.18 in 4.0 mi East 4.6 mph - N/A   Overcast
2:55 PM 56.3 °F 55.9 °F 99% 30.19 in 2.0 mi ENE 4.6 mph - N/A   Overcast
3:15 PM 56.3 °F 56.1 °F 99% 30.19 in 1.2 mi NNE 4.6 mph - N/A   Overcast
3:35 PM 55.9 °F 56.1 °F 100% 30.20 in 1.2 mi NNE 3.5 mph - N/A   Light Drizzle
3:55 PM 55.6 °F 55.8 °F 100% 30.20 in 1.8 mi NE 4.6 mph - N/A   Overcast
4:15 PM 55.4 °F 55.4 °F 100% 30.19 in 1.2 mi ENE 6.9 mph - N/A   Overcast
4:35 PM 54.9 °F 54.9 °F 100% 30.19 in 2.5 mi East 8.1 mph - N/A   Overcast
4:55 PM 54.7 °F 54.7 °F 100% 30.20 in 4.0 mi ENE 5.8 mph - N/A   Overcast
5:15 PM 54.5 °F 54.7 °F 100% 30.20 in 2.0 mi ENE 5.8 mph - N/A   Overcast
5:35 PM 54.1 °F 54.3 °F 100% 30.20 in 3.0 mi ENE 5.8 mph - N/A   Overcast
5:55 PM 54.0 °F 54.1 °F 100% 30.21 in 3.0 mi NE 3.5 mph - N/A   Overcast
6:15 PM 53.8 °F 53.8 °F 100% 30.22 in 2.0 mi ENE 5.8 mph - N/A   Overcast
6:35 PM 53.4 °F 53.4 °F 100% 30.22 in 2.0 mi ENE 5.8 mph - N/A   Overcast
6:55 PM 53.1 °F 53.2 °F 100% 30.22 in 2.0 mi ENE 5.8 mph - N/A   Overcast
7:15 PM 52.7 °F 52.9 °F 100% 30.23 in 2.5 mi ENE 4.6 mph - N/A   Overcast
7:35 PM 52.7 °F 52.7 °F 100% 30.23 in 2.5 mi ENE 4.6 mph - N/A   Overcast
7:55 PM - - N/A% 30.24 in 2.5 mi NE 3.5 mph - N/A   Overcast
8:15 PM 52.3 °F 52.5 °F 100% 30.24 in 3.0 mi ENE 4.6 mph - N/A   Overcast
8:35 PM 52.2 °F 52.3 °F 100% 30.24 in 2.0 mi ENE 5.8 mph - N/A   Overcast
8:55 PM 52.0 °F 52.2 °F 100% 30.24 in 1.8 mi NNE 3.5 mph - N/A   Overcast
9:15 PM 52.0 °F 52.2 °F 100% 30.24 in 1.5 mi ENE 3.5 mph - N/A   Overcast
9:35 PM 51.6 °F 51.8 °F 100% 30.24 in 1.2 mi ENE 4.6 mph - N/A   Overcast
9:55 PM 51.3 °F 51.4 °F 100% 30.24 in 1.2 mi Calm Calm - N/A   Overcast
10:15 PM 51.3 °F 51.4 °F 100% 30.23 in 1.2 mi East 3.5 mph - N/A   Overcast
10:35 PM 51.3 °F 51.6 °F 100% 30.22 in 1.2 mi East 5.8 mph - N/A   Overcast
10:55 PM 51.4 °F 51.6 °F 100% 30.22 in 1.2 mi East 4.6 mph - N/A   Overcast
11:15 PM 51.6 °F 51.6 °F 100% 30.22 in 1.2 mi East 3.5 mph - N/A   Overcast
11:35 PM 51.8 °F 51.8 °F 100% 30.22 in 1.5 mi East 4.6 mph - N/A   Overcast
11:55 PM 51.8 °F 51.8 °F 100% 30.22 in 1.0 mi Calm Calm - N/A   Overcast